[[{"header":{"parameterUnit":"m.s-1","parameterCategory":1,"la1":30.2991,"la2":30.254,"lo1":-89.0895,"lo2":-89.0444,"dy":0.0017,"dx":0.0017,"nx":28,"ny":28,"refTime":"2024-06-27T09:00:00:Z","depth":0,"parameterNumber":2,"parameterNumberName":"U-component_of_WINDS"},"data":[0,0,0,0,0,0,0,0,0,0,0,0,0,0,0,0,0,0,0,0,0,0,0,0,0,0,0,0,0,0,0,0,0,0,0,0,0,0,0,0,0,0,0,0,0,0,0,0,0,0,0,0,0,0,0,0,0,0,4.2318,4.2318,0,4.2389,4.239,4.239,4.2354,4.2352,4.2351,4.2349,4.2421,4.2425,4.2429,0,0,0,0,0,0,0,0,0,0,0,0,0,4.215,4.2154,4.2318,4.2319,4.2319,4.2389,4.239,4.2391,4.2355,4.2352,4.235,4.2348,4.242,4.2425,4.2429,0,0,0,0,0,0,0,0,0,0,0,0,0,4.2222,4.2155,4.2317,4.231,4.231,4.2388,4.239,4.2391,4.2355,4.2352,4.235,4.2347,4.2419,4.2424,4.243,4.252,0,0,4.2446,4.2449,0,0,0,0,0,0,0,0,4.2218,4.2229,4.231,4.2311,4.2311,4.236,4.2357,4.2434,4.2356,4.2338,4.2349,4.2346,4.2403,4.241,4.2429,4.2523,4.2526,4.2447,4.245,4.2453,4.2454,0,0,0,0,0,0,0,4.2213,4.2225,4.2346,4.2311,4.2312,4.2303,4.231,4.2372,4.2385,4.2339,4.2337,4.2346,4.2403,4.2424,4.2431,4.2527,4.2447,4.2452,4.2455,4.2457,4.2697,4.27,0,0,0,0,0,0,4.2209,4.2221,4.2343,4.2348,4.2257,4.2308,4.2316,4.2347,4.2385,4.2388,4.2348,4.2344,4.2416,4.2424,4.2433,4.2539,4.2453,4.2458,4.2461,4.2694,4.2698,4.2701,0,0,0,0,0,0,4.2205,4.222,4.2341,4.2284,4.2299,4.2314,4.2349,4.235,4.2371,4.2391,4.2394,4.2367,4.2414,4.2425,4.2498,4.2541,4.246,4.2465,4.269,4.2695,4.2699,4.2754,0,0,0,0,0,0,4.2201,4.2219,4.2253,4.2285,4.2302,4.2405,4.2352,4.2353,4.238,4.2376,4.241,4.2413,4.2413,4.249,4.2504,4.2548,4.247,4.2686,4.2693,4.2698,4.2748,4.276,4.277,0,0,0,0,0,4.2195,4.2266,4.2255,4.227,4.2345,4.2407,4.2417,4.2415,4.2384,4.2419,4.2432,4.2412,4.2535,4.2498,4.2513,4.2559,4.2684,4.2691,4.2698,4.2743,4.2757,4.2769,0,0,0,0,0,0,4.2239,4.227,4.2258,4.2342,4.2372,4.2401,4.2444,4.243,4.247,4.2464,4.246,4.2468,4.2543,4.2559,4.2517,4.2648,4.2605,4.2615,4.2634,4.2648,4.2658,4.2652,4.2474,0,0,0,0,0,4.2259,4.2306,4.2331,4.2402,4.2418,4.2429,4.2456,4.2452,4.2483,4.2496,4.2514,4.2545,4.259,4.262,4.2664,4.2751,4.2757,4.279,4.2801,4.281,4.2818,4.2864,4.2878,4.2724,4.2724,4.2724,0,0,4.2299,4.2322,4.2352,4.2412,4.2435,4.2484,4.244,4.2494,4.253,4.2504,4.2573,4.2588,4.2622,4.2702,4.2738,4.2717,4.2862,4.2819,4.2825,4.2829,4.2872,4.2887,4.29,4.2728,4.2728,4.2727,0,0,4.2397,4.2421,4.2482,4.2506,4.2541,4.2548,4.2563,4.2594,4.2602,4.2672,4.2653,4.2696,4.2775,4.28,4.2823,4.2931,4.2914,4.2946,4.3001,4.3046,4.3058,4.3068,4.3105,4.3119,4.2954,4.2955,4.2955,0,4.2443,4.2516,4.2515,4.257,4.2596,4.2576,4.2637,4.2661,4.2708,4.2727,4.2703,4.2801,4.2823,4.2907,4.2934,4.2954,4.297,4.2941,4.3056,4.3067,4.3077,4.3112,4.3126,4.2958,4.2958,4.2957,4.2957,0,4.257,4.2621,4.2667,4.2713,4.2745,4.2803,4.281,4.2842,4.2836,4.2845,4.2916,4.2942,4.2989,4.301,4.3005,4.3094,4.3079,4.3056,4.3012,4.3095,4.3128,4.3141,4.2963,4.2962,4.2961,4.296,0,0,4.2696,4.2741,4.2758,4.2778,4.2816,4.2855,4.2913,4.2959,4.2986,4.3021,4.3067,4.3135,4.3114,4.314,4.3138,4.3177,4.3259,4.3149,4.315,4.3167,4.3357,4.3372,4.3388,4.3249,4.3252,4.3254,4.3353,0,4.2795,4.2895,4.2896,4.2988,4.3034,4.3016,4.3066,4.3094,4.3105,4.3146,4.3157,4.3204,4.3174,4.3189,4.3228,4.3241,4.3297,4.3234,4.3291,4.3293,4.3281,4.3405,4.3422,4.3514,4.3366,4.3369,4.337,0,4.2924,4.2961,4.3058,4.3089,4.3108,4.3153,4.3195,4.3235,4.3267,4.3272,4.3301,4.3293,4.3351,4.3308,4.3387,4.3344,4.3368,4.3378,4.3381,4.3385,4.3335,4.341,4.3544,4.3557,4.3391,4.3389,4.3388,0,4.3003,4.3079,4.3146,4.3164,4.3202,4.3234,4.3251,4.328,4.3308,4.3345,4.3363,4.3407,4.343,4.3464,4.3468,4.3436,4.3547,4.3504,4.3551,4.3551,4.3573,4.3571,4.3711,4.3593,4.3593,4.3592,4.3592,0,4.3112,4.3171,4.3182,4.3223,4.3288,4.3289,4.3354,4.3369,4.3395,4.3438,4.3426,4.3467,4.347,4.3512,4.3516,4.358,4.3591,4.3596,4.3595,4.3595,4.3594,4.3609,4.3601,4.3596,4.3595,4.3595,4.3594,0,4.321,4.322,4.3292,4.3322,4.3331,4.3378,4.3404,4.3443,4.3453,4.3508,4.3521,4.3536,4.3584,4.3592,4.365,4.3652,4.3728,4.3722,4.3717,4.3715,4.3761,4.3755,4.3912,4.3932,4.3804,4.3805,4.3806,0,4.3278,4.3323,4.3359,4.3387,4.3406,4.3451,4.3479,4.3482,4.3512,4.3552,4.3586,4.3634,4.3671,4.375,4.3766,4.3809,4.3803,4.3855,4.3809,4.3808,4.3801,4.3797,4.3801,4.3863,4.3865,4.3866,4.3867,0,4.3396,4.3399,4.344,4.3483,4.3517,4.3552,4.3584,4.3607,4.3614,4.3649,4.3698,4.3728,4.3786,4.3833,4.3876,4.3894,4.3881,4.3882,4.3894,4.3893,4.3887,4.3888,4.3738,4.3877,4.3876,4.3875,4.3875,4.3874,4.348,4.3518,4.3549,4.3596,4.362,4.3651,4.3688,4.3703,4.3745,4.3792,4.3792,4.3846,4.3876,4.3933,4.3954,4.3996,4.3979,4.3998,4.4002,4.4006,4.4009,4.3883,4.4004,4.4004,4.4004,4.4003,4.4003,0,4.3595,4.3614,4.3657,4.3702,4.3739,4.3725,4.376,4.3791,4.3839,4.3869,4.3906,4.3963,4.4008,4.4028,4.4073,4.4102,4.4098,4.4114,4.411,4.4114,4.4023,4.4006,4.4117,4.4117,4.4117,4.4117,4.4117,4.4117,4.3659,4.3723,4.373,4.3806,4.3825,4.3878,4.3899,4.3926,4.395,4.4014,4.4052,4.4065,4.409,4.4137,4.4177,4.4182,4.4198,4.4216,4.4218,4.4132,4.4121,4.4109,4.4094,4.422,4.422,4.4305,4.4306,4.4306]},{"header":{"parameterUnit":"m.s-1","parameterCategory":1,"la1":30.2991,"la2":30.254,"lo1":-89.0895,"lo2":-89.0444,"dy":0.0017,"dx":0.0017,"nx":28,"ny":28,"refTime":"2024-06-27T09:00:00:Z","depth":0,"parameterNumber":3,"parameterNumberName":"V-component_of_WINDS"},"data":[0,0,0,0,0,0,0,0,0,0,0,0,0,0,0,0,0,0,0,0,0,0,0,0,0,0,0,0,0,0,0,0,0,0,0,0,0,0,0,0,0,0,0,0,0,0,0,0,0,0,0,0,0,0,0,0,0,0,3.5384,3.5385,0,3.5463,3.5464,3.5465,3.5498,3.5498,3.5498,3.5498,3.5574,3.5576,3.5578,0,0,0,0,0,0,0,0,0,0,0,0,0,3.5256,3.5258,3.5384,3.5385,3.5386,3.5463,3.5464,3.5465,3.5498,3.5498,3.5498,3.5498,3.5574,3.5576,3.5579,0,0,0,0,0,0,0,0,0,0,0,0,0,3.5321,3.5259,3.5384,3.5412,3.5415,3.5463,3.5464,3.5466,3.5498,3.5498,3.5498,3.5498,3.5573,3.5576,3.5579,3.5604,0,0,3.5589,3.559,0,0,0,0,0,0,0,0,3.5317,3.5326,3.5407,3.541,3.5414,3.5471,3.5447,3.5512,3.5498,3.5467,3.5498,3.5497,3.554,3.5546,3.5561,3.5607,3.561,3.5589,3.5591,3.5593,3.5594,0,0,0,0,0,0,0,3.5313,3.5322,3.5415,3.5408,3.5412,3.5419,3.5428,3.546,3.5503,3.5469,3.5472,3.5481,3.5541,3.5558,3.5563,3.5612,3.5589,3.5592,3.5594,3.5595,3.5681,3.5681,0,0,0,0,0,0,3.5304,3.5318,3.5413,3.5418,3.5364,3.5421,3.5431,3.5453,3.5503,3.5511,3.5481,3.5482,3.5552,3.5559,3.5566,3.5598,3.5593,3.5596,3.5598,3.5681,3.5681,3.5681,0,0,0,0,0,0,3.5301,3.5312,3.541,3.5369,3.5382,3.5424,3.5447,3.5454,3.5471,3.5512,3.5519,3.549,3.5552,3.5561,3.5594,3.5601,3.5597,3.56,3.568,3.5681,3.5681,3.5661,0,0,0,0,0,0,3.5298,3.5311,3.5322,3.5369,3.5384,3.5438,3.5448,3.5456,3.5477,3.5479,3.5522,3.5529,3.5553,3.5589,3.5597,3.5605,3.5603,3.568,3.5681,3.5681,3.5662,3.5661,3.5661,0,0,0,0,0,3.5293,3.5313,3.5323,3.5334,3.5399,3.5439,3.5447,3.5475,3.5477,3.5488,3.5514,3.5528,3.5598,3.5592,3.5602,3.5611,3.568,3.568,3.5681,3.5662,3.5661,3.5661,0,0,0,0,0,0,3.5264,3.5319,3.5331,3.5367,3.5398,3.5444,3.5458,3.5473,3.5503,3.5504,3.5536,3.5546,3.5576,3.5596,3.5588,3.5636,3.564,3.5643,3.5622,3.5622,3.5621,3.5616,3.5605,0,0,0,0,0,3.5262,3.5291,3.5337,3.5364,3.5379,3.5416,3.5434,3.5453,3.5486,3.5499,3.5528,3.5558,3.5587,3.5606,3.5635,3.5665,3.5674,3.5675,3.5675,3.5674,3.5676,3.5693,3.5694,3.5684,3.5684,3.5684,0,0,3.5258,3.5292,3.5308,3.5359,3.5386,3.5414,3.5427,3.5456,3.5477,3.5503,3.5537,3.5559,3.5594,3.5626,3.5641,3.5644,3.5681,3.5675,3.5674,3.5677,3.5694,3.5694,3.5695,3.5684,3.5684,3.5684,0,0,3.5265,3.5294,3.5319,3.5345,3.5386,3.541,3.5416,3.546,3.5476,3.551,3.5531,3.5554,3.5604,3.5628,3.5647,3.5662,3.5676,3.5671,3.5668,3.5684,3.5685,3.5686,3.5691,3.5692,3.5672,3.5672,3.5672,0,3.5254,3.5299,3.533,3.5358,3.538,3.5406,3.5431,3.5455,3.5502,3.5515,3.5518,3.558,3.5606,3.5643,3.5647,3.5662,3.5668,3.5666,3.5683,3.5684,3.5685,3.569,3.5692,3.5672,3.5672,3.5672,3.5672,0,3.5283,3.5314,3.533,3.5376,3.5399,3.5425,3.5459,3.5478,3.5495,3.5518,3.5552,3.5583,3.5619,3.5629,3.5645,3.5669,3.5669,3.5677,3.5681,3.5685,3.569,3.5692,3.567,3.5671,3.5671,3.5671,0,0,3.5275,3.5338,3.5343,3.5364,3.541,3.5434,3.546,3.5497,3.5513,3.5543,3.5566,3.5607,3.5615,3.5636,3.5654,3.5668,3.5678,3.5674,3.5676,3.5674,3.5705,3.5699,3.5701,3.5687,3.5687,3.5688,3.5702,0,3.5288,3.534,3.5368,3.5407,3.5435,3.546,3.5483,3.5513,3.5535,3.556,3.5584,3.5613,3.562,3.5633,3.5648,3.5674,3.5684,3.5673,3.5707,3.5708,3.5698,3.5704,3.5698,3.571,3.5704,3.5705,3.5705,0,3.531,3.5343,3.5385,3.5427,3.544,3.5461,3.5496,3.5521,3.5554,3.5569,3.5593,3.5611,3.5639,3.5641,3.5679,3.567,3.5685,3.57,3.5701,3.5705,3.5707,3.5708,3.5714,3.5716,3.5708,3.5708,3.5708,0,3.53,3.5353,3.5386,3.5403,3.5453,3.5467,3.5488,3.5522,3.5542,3.5572,3.5585,3.5617,3.5634,3.5658,3.5684,3.5683,3.5719,3.5723,3.5731,3.5731,3.5738,3.5737,3.5746,3.5748,3.5748,3.5747,3.5747,0,3.5311,3.5336,3.5381,3.5401,3.5429,3.546,3.5486,3.5509,3.5539,3.5562,3.5585,3.5606,3.5639,3.5664,3.5684,3.5712,3.572,3.5732,3.5737,3.573,3.5728,3.5741,3.574,3.5748,3.5748,3.5748,3.5748,0,3.5304,3.5336,3.5373,3.5417,3.5429,3.5448,3.5485,3.5504,3.5528,3.5557,3.5565,3.5601,3.5632,3.566,3.57,3.5713,3.5741,3.5748,3.5731,3.5733,3.574,3.5739,3.5757,3.5761,3.5759,3.5759,3.5759,0,3.531,3.533,3.5377,3.5395,3.5416,3.5445,3.5466,3.5496,3.5517,3.5556,3.557,3.5603,3.563,3.5677,3.5705,3.5736,3.5743,3.5747,3.5748,3.574,3.5743,3.5742,3.5743,3.5747,3.5747,3.5747,3.5747,0,3.5316,3.5331,3.5361,3.5396,3.542,3.5449,3.5478,3.5491,3.5527,3.5548,3.5581,3.5602,3.5643,3.5674,3.5708,3.5728,3.5743,3.5746,3.575,3.5743,3.5732,3.5738,3.5729,3.5746,3.5746,3.5746,3.5746,3.5746,3.5316,3.5334,3.5371,3.5403,3.5428,3.5455,3.5475,3.5501,3.5529,3.5567,3.5582,3.5614,3.5646,3.5693,3.5713,3.5738,3.5741,3.5746,3.5747,3.5748,3.5747,3.5728,3.5744,3.5744,3.5744,3.5744,3.5744,0,3.5323,3.5348,3.5377,3.5418,3.5443,3.5456,3.5489,3.5508,3.5537,3.5566,3.5593,3.563,3.566,3.5691,3.5722,3.5736,3.5743,3.5743,3.5742,3.5747,3.5742,3.5736,3.5736,3.5736,3.5736,3.5736,3.5736,3.5736,3.533,3.5362,3.5381,3.5425,3.5449,3.5483,3.55,3.5524,3.5548,3.5588,3.5614,3.5634,3.5664,3.5698,3.5725,3.5734,3.5744,3.5742,3.5752,3.5747,3.5747,3.5747,3.5742,3.5744,3.5744,3.5755,3.5755,3.5755]}]]